Regional Weather Roundup
Issued by NWS

Home | Current Version | Previous Version | Text Only | Print | Product List | Glossary On
Versions: 1 2 3 4 5 6 7 8 9 10 11 12 13 14 15 16 17 18 19 20 21 22 23 24 25 26 27 28 29 30 31 32 33 34 35 36 37 38 39 40 41 42 43 44 45 46 47 48 49 50
723
ASUS45 KBOU 241907
RWRCO

WEATHER ROUNDUP FOR COLORADO
NATIONAL WEATHER SERVICE DENVER/BOULDER CO
100 PM MDT MON APR 24 2017

NOTE: "FAIR" INDICATES FEW OR NO CLOUDS BELOW 12000 FEET WITH NO
SIGNIFICANT WEATHER AND/OR OBSTRUCTIONS TO VISIBILITY.

COZ001>005-013-030-031-242000-
...NORTHWEST COLORADO...

CITY           SKY/WX    TMP DP  RH WIND       PRES   REMARKS
CRAIG          CLOUDY    57  30  35 W15G23    29.69F
HAYDEN         FAIR      52  34  50 E5        29.71F
MEEKER         CLOUDY    58  24  27 SW22G31   29.70F
MOUNT WERNER   NOT AVBL
STEAMBOAT SPGS FAIR      50  35  57 W5        29.72F
WALDEN           N/A     50  32  50 SW14G20   29.75F
$$

COZ006>008-011-242000-
...WEST CENTRAL VALLEYS...

CITY           SKY/WX    TMP DP  RH WIND       PRES   REMARKS
GRAND JUNCTION CLOUDY    66  30  26 SE8       29.65F
MONTROSE       PTSUNNY   66  20  17 SW21G30   29.72F
EAGLE          CLOUDY    54  30  40 NW8G17    29.75F
RIFLE          PTSUNNY   63  26  24 W24G31    29.69F
DELTA          PTSUNNY   69  26  20 SW12      29.70F
NUCLA          PTSUNNY   63  23  22 S21G31    29.80F
$$

COZ017>023-064>068-242000-
...SOUTHWEST COLORADO...

CITY           SKY/WX    TMP DP  RH WIND       PRES   REMARKS
DURANGO        FAIR      62  20  19 SW15G23   29.84F
CORTEZ         PTSUNNY   63  21  20 SW16G22   29.81F
PAGOSA SPRINGS FAIR      60  18  19 SW17G25   29.88F
TELLURIDE      CLOUDY    50  17  27 SW14G20   29.93R
WOLF CREEK PAS PTSUNNY   34  19  55 S37G47    30.02F WCI  19
$$

COZ009-010-012-014-032>034-037-058>063-242000-
...CENTRAL COLORADO...

CITY           SKY/WX    TMP DP  RH WIND       PRES   REMARKS
ASPEN          CLOUDY    52  24  33 E8        29.77F
BUENA VISTA    FAIR      58  18  20 SW22G32   29.77F
COPPER MTN     CLOUDY    37  19  48 W12G24    29.92F
BERTHOUD PASS  FAIR      32  21  64 W33G39    29.89F WCI  17
COTTONWOOD PAS FAIR      50  18  27 W25G48    29.82S
GUNNISON       FAIR      58  22  24 W25G32    29.79F
KREMMLING      CLOUDY    59  21  23 W23G33    29.75F
LEADVILLE      FAIR      46  17  31 SW14      29.84F
MONARCH PASS   CLOUDY    36  19  51 W32G45    30.05F
SALIDA         PTSUNNY   60  21  21 SW8G17    29.83F
SUNLIGHT       LGT SNOW  34  25  69 SW14G23   29.91F WCI  24
WILKERSON PASS PTSUNNY   41  14  33 SW13G28   29.93S
$$

COZ069>075-242000-
...SAN LUIS VALLEY/SANGRE DE CRISTO MOUNTAINS...

CITY           SKY/WX    TMP DP  RH WIND       PRES   REMARKS
ALAMOSA        FAIR      66  14  13 W14G29    29.79F
LA VETA PASS   FAIR      54  21  28 SW23      29.98F
SAGUACHE       FAIR      63  18  17 NW20G26   29.78F
$$

COZ035-036-038>040-242000-
...NORTHERN COLORADO FRONT RANGE...

CITY           SKY/WX    TMP DP  RH WIND       PRES   REMARKS
DENVER INTL AP PTSUNNY   66  30  26 E13G20    29.64F
DMNS CITY PARK   N/A     64  32  30 E8G23     29.63F
AURORA         PTSUNNY   65  31  28 E12G21    29.65F
FRONT RANGE AP PTSUNNY   66  30  26 NE12      29.66F
ERIE MUNI ARPT FAIR      67  31  25 SE9       29.63F
BOULDER MUN AP PTSUNNY   63  34  34 SE8       29.62F
CENTENNIAL     PTSUNNY   63  32  31 E9G18     29.66F
BROOMFIELD     MOSUNNY   64  32  29 E7        29.65F
FORT COLLINS   FAIR      66  32  28 S7        29.62F
LONGMONT       FAIR      67  32  27 SE8       29.64F
$$

COZ041-046-047-076>085-087-088-242000-
...PIKES PEAK/PALMER DIVIDE AND SOUTHERN FOOTHILLS...

CITY           SKY/WX    TMP DP  RH WIND       PRES   REMARKS
COLO. SPRINGS  PTSUNNY   68  18  14 E8        29.65F
A. F. ACADEMY  PTSUNNY   66  16  14 SW6       29.66F
SCHRIEVER AFB  FAIR      68  21  17 SW15G29   29.65F
ELLICOTT       FAIR     N/A N/A N/A S18G26    29.65F
FALCON         PTSUNNY   65  17  15 S8G20     29.70F
FORT CARSON    FAIR      70  17  13 SW20G30   29.63F
LIMON          FAIR      67  33  28 VRB7      29.66F
MONUMENT HILL  FAIR      59  32  36 E13G20    29.72F
TRINIDAD       FAIR      72  15  11 MISG      29.68F
$$

COZ042>045-048>051-090-091-242000-
...NORTHEAST COLORADO...

CITY           SKY/WX    TMP DP  RH WIND       PRES   REMARKS
GREELEY ARPT   FAIR      65  29  25 E7        29.63F
AKRON          FAIR      66  31  27 N7G20     29.65F
BURLINGTON     NOT AVBL
WRAY           NOT AVBL
STERLING       FAIR      68  36  30 N8G16     29.62F
HOLYOKE        FAIR      73  39  29 N12G24    29.63S
FORT MORGAN    FAIR      66  25  21 CALM      29.65F
$$

COZ086-089-092>099-242000-
...SOUTHEAST COLORADO...

CITY           SKY/WX    TMP DP  RH WIND       PRES   REMARKS
PUEBLO         FAIR      75  28  17 VRB3      29.60F
LA JUNTA       FAIR      75  32  20 E10       29.61F
LAMAR          FAIR      75  35  23 MISG      29.60F
SPRINGFIELD      N/A     76  26  15 W8        29.62F
$$




USA.gov is the U.S. government's official web portal to all federal, state and local government web resources and services.